{"data":{"norad_id":67695,"intl_designator":"2026-025C","name":"STARLINK-36750","alt_names":[],"object_type":"PAYLOAD","status":"ACTIVE","operator":null,"country":"US","launch_date":"2026-02-07","launch_site_code":"AFWTR","launch_vehicle":null,"mission":null,"orbit_class":"UNKNOWN","rcs_meters":null,"size_class":null,"mass_kg":null,"dimensions":null,"purposes":["comms"],"wikipedia_slug":null,"has_3d_model":false,"image_url":null,"decayed_at":null,"tle_current":{"epoch":"2026-05-25T01:15:53.376768Z","epoch_age_seconds":81055,"freshness":"FRESH","line1":"1 67695U 26025C   26145.05270112  .00025197  00000+0  77973-3 0  9993","line2":"2 67695  97.2836 256.6405 0000736 269.0124  91.1034 15.33464935 17715","mean_motion":15.33464935,"eccentricity":7.36e-5,"inclination_deg":97.2836,"raan_deg":256.6405,"arg_perigee_deg":269.0124,"mean_anomaly_deg":91.1034,"bstar":0.00077973,"rev_number":1771,"period_min":93.904983878878,"perigee_km":464.98017209066,"apogee_km":465.98755308164,"semimajor_km":6843.6208625861,"source":"CELESTRAK","updated_at":"2026-05-25T13:38:21.662938Z"}}}